| time (UTC) | temp C | wind direction | speed KPH | gust KPH | rain 1hr cm | rain 24hr cm | rain mn cm | humidity % | barometer mb |
| 20260504231845 | 12 | 341 | 4.8 | 8.0 | 0.00 | 0.05 | 0.00 | 71 | 1005.9 |
| 20260504230346 | 12 | 349 | 6.4 | 9.7 | 0.00 | 0.10 | 0.00 | 69 | 1005.6 |
| 20260504224912 | 12 | 344 | 8.0 | 17.7 | 0.00 | 0.10 | 0.00 | 68 | 1005.3 |
| 20260504223352 | 12 | 325 | 8.0 | 19.3 | 0.00 | 0.10 | 0.00 | 67 | 1005.2 |
| 20260504221847 | 13 | 333 | 11.3 | 22.5 | 0.00 | 0.10 | 0.00 | 66 | 1005.1 |
| 20260504220355 | 13 | 315 | 12.9 | 25.7 | 0.00 | 0.18 | 0.00 | 64 | 1004.9 |
| 20260504214857 | 14 | 330 | 11.3 | 20.9 | 0.00 | 0.18 | 0.00 | 62 | 1004.7 |
| 20260504213336 | 14 | 323 | 9.7 | 25.7 | 0.00 | 0.18 | 0.00 | 61 | 1004.4 |
| 20260504211858 | 14 | 300 | 12.9 | 22.5 | 0.00 | 0.18 | 0.00 | 60 | 1004.2 |
| 20260504210343 | 13 | 275 | 9.7 | 27.4 | 0.00 | 0.25 | 0.00 | 61 | 1004.4 |
| 20260504204847 | 13 | 291 | 12.9 | 27.4 | 0.00 | 0.25 | 0.00 | 62 | 1004.2 |
| 20260504203349 | 13 | 291 | 14.5 | 32.2 | 0.00 | 0.25 | 0.00 | 61 | 1004.1 |
| 20260504201917 | 13 | 309 | 14.5 | 40.2 | 0.00 | 0.25 | 0.00 | 61 | 1004.3 |
| 20260504200336 | 14 | 294 | 19.3 | 37.0 | 0.00 | 0.30 | 0.00 | 60 | 1004.3 |
| 20260504194858 | 14 | 287 | 12.9 | 27.4 | 0.00 | 0.30 | 0.00 | 60 | 1004.2 |
| 20260504193336 | 13 | 265 | 22.5 | 38.6 | 0.00 | 0.30 | 0.00 | 60 | 1004.2 |
| 20260504191838 | 13 | 268 | 11.3 | 38.6 | 0.00 | 0.30 | 0.00 | 60 | 1004.3 |
| 20260504190358 | 12 | 306 | 11.3 | 24.1 | 0.00 | 0.48 | 0.00 | 65 | 1004.6 |
| 20260504184901 | 12 | 319 | 14.5 | 24.1 | 0.00 | 0.48 | 0.00 | 65 | 1004.7 |
| 20260504183344 | 12 | 311 | 11.3 | 30.6 | 0.00 | 0.48 | 0.00 | 61 | 1004.5 |
| 20260504181846 | 12 | 290 | 16.1 | 27.4 | 0.00 | 0.48 | 0.00 | 59 | 1004.5 |
| 20260504180348 | 13 | 235 | 9.7 | 20.9 | 0.00 | 0.84 | 0.00 | 52 | 1004.5 |
| 20260504174849 | 13 | 225 | 12.9 | 29.0 | 0.00 | 0.84 | 0.00 | 49 | 1003.7 |
| 20260504173354 | 14 | 268 | 14.5 | 22.5 | 0.00 | 0.84 | 0.00 | 47 | 1003.6 |
| 20260504171855 | 15 | 216 | 12.9 | 30.6 | 0.00 | 0.84 | 0.00 | 44 | 1003.6 |
| 20260504170354 | 15 | 211 | 12.9 | 38.6 | 0.00 | 1.02 | 0.00 | 45 | 1003.7 |
| 20260504160344 | 14 | 246 | 8.0 | 33.8 | 0.00 | 1.09 | 0.00 | 48 | 1004.4 |
| 20260504150355 | 12 | 304 | 16.1 | 25.7 | 0.00 | 1.17 | 0.00 | 52 | 1005.4 |
| 20260504140352 | 10 | 341 | 16.1 | 35.4 | 0.00 | 1.27 | 0.00 | 54 | 1005.8 |
| 20260504130343 | 8 | 304 | 16.1 | 27.4 | 0.00 | 1.42 | 0.00 | 58 | 1006.3 |
| 20260504110401 | 3 | 271 | 9.7 | 22.5 | 0.00 | 1.65 | 1.55 | 77 | 1005.8 |
| 20260504100350 | 2 | 294 | 8.0 | 16.1 | 0.00 | 1.70 | 1.55 | 77 | 1004.8 |
| 20260504081910 | 2 | 293 | 9.7 | 32.2 | 0.00 | 1.85 | 1.55 | 72 | 1003.4 |
| 20260504080349 | 2 | 303 | 14.5 | 24.1 | 0.00 | 1.98 | 1.55 | 70 | 1003.4 |
| 20260504070346 | 3 | 351 | 11.3 | 22.5 | 0.00 | 2.08 | 1.55 | 64 | 1002.9 |
| 20260504050342 | 6 | 302 | 12.9 | 27.4 | 0.00 | 2.08 | 1.55 | 15 | 1002.1 |
| 20260504044846 | 6 | 308 | 9.7 | 30.6 | 0.00 | 2.08 | 1.55 | 16 | 1002.0 |
| 20260504043413 | 6 | 309 | 12.9 | 29.0 | 0.00 | 2.08 | 1.55 | 11 | 1001.7 |
| 20260504041853 | 6 | 320 | 16.1 | 27.4 | 0.00 | 2.08 | 1.55 | 4 | 1001.5 |
| 20260504040336 | 6 | 339 | 12.9 | 30.6 | 0.00 | 2.11 | 1.55 | 1 | 1001.5 |
| 20260504034842 | 6 | 319 | 9.7 | 24.1 | 0.00 | 2.11 | 1.55 | 1 | 1001.4 |
| 20260504033345 | 5 | 329 | 14.5 | 22.5 | 0.00 | 2.11 | 1.55 | 1 | 1001.3 |
| 20260504031846 | 5 | 338 | 11.3 | 25.7 | 0.00 | 2.11 | 1.55 | 1 | 1001.1 |
| 20260504030334 | 5 | 298 | 16.1 | 25.7 | 0.00 | 2.11 | 1.55 | 1 | 1000.9 |
| 20260504024835 | 5 | 317 | 12.9 | 25.7 | 0.00 | 2.11 | 1.55 | 1 | 1000.7 |
| 20260504023338 | 5 | 320 | 19.3 | 29.0 | 0.00 | 2.11 | 1.55 | 1 | 1000.7 |
| 20260504021903 | 5 | 69 | 16.1 | 30.6 | 0.03 | 2.11 | 1.55 | 1 | 1000.6 |
| 20260504020344 | 5 | 343 | 12.9 | 32.2 | 0.03 | 2.11 | 1.55 | 1 | 1000.6 |
| 20260504014845 | 5 | 13 | 16.1 | 29.0 | 0.03 | 2.11 | 1.55 | 1 | 1000.6 |
| 20260504013348 | 5 | 337 | 16.1 | 32.2 | 0.03 | 2.11 | 1.55 | 1 | 1000.6 |
| 20260504011854 | 5 | 360 | 14.5 | 33.8 | 0.03 | 2.08 | 1.52 | 1 | 1000.4 |
| 20260504010348 | 5 | 311 | 14.5 | 27.4 | 0.03 | 2.08 | 1.52 | 1 | 1000.2 |
| 20260504004850 | 5 | 355 | 20.9 | 35.4 | 0.03 | 2.08 | 1.52 | 1 | 1000.0 |
| 20260504003336 | 5 | 355 | 16.1 | 29.0 | 0.03 | 2.08 | 1.52 | 1 | 999.9 |
| 20260504001839 | 5 | 22 | 17.7 | 35.4 | 0.00 | 2.06 | 1.50 | 1 | 999.8 |
| 20260504000341 | 5 | 346 | 17.7 | 29.0 | 0.03 | 2.06 | 1.50 | 1 | 999.5 |
| 20260503234847 | 5 | 340 | 14.5 | 30.6 | 0.03 | 2.06 | 1.50 | 1 | 999.3 |
| 20260503233348 | 5 | 27 | 19.3 | 33.8 | 0.03 | 2.06 | 1.50 | 1 | 999.1 |